Location: Leuk
(46.3174°N, 7.6341°E)
Time: 18:28:15
(UTC+00:00)

SL-16 R/B - Pass Details

Date: 09 March 2021
Orbit: 840 x 850 km, 71.0° (Epoch: 15 April)

Event Time Altitude Azimuth Distance (km) Brightness Sun altitude
Rises 04:23:06 0° 339° (NNW) 3,425 5.3 -16.4°
Reaches altitude 10° 04:25:59 10° 352° (N) 2,486 4.7 -15.9°
Maximum altitude 04:30:44 26° 48° (NE) 1,614 4.3 -15.1°
Drops below altitude 10° 04:35:27 10° 104° (ESE) 2,476 5.7 -14.3°
Sets 04:38:18 0° 117° (ESE) 3,407 6.3 -13.8°
